Time,TemperatureF,DewpointF,PressureIn,WindDirection,WindDirectionDegrees,WindSpeedMPH,WindSpeedGustMPH,Humidity,HourlyPrecipIn,Conditions,Clouds,dailyrainin,SoftwareType,DateUTC
2013-06-10 00:01:00,71.5,63.5,30.01,WSW,239,0.0,0.0,76,0.00,,,0.00,Wunderground v.1.15,2013-06-10 04:01:00,
2013-06-10 00:02:00,71.5,63.5,30.01,WSW,239,0.0,0.0,76,0.00,,,0.00,Wunderground v.1.15,2013-06-10 04:02:00,
2013-06-10 00:11:00,71.5,63.9,30.01,WSW,237,0.0,0.0,77,0.00,,,0.00,Wunderground v.1.15,2013-06-10 04:11:00,
2013-06-10 00:12:00,71.5,63.9,30.01,WSW,237,0.0,0.0,77,0.00,,,0.00,Wunderground v.1.15,2013-06-10 04:12:00,
2013-06-10 00:17:00,71.5,64.3,30.01,WSW,237,0.0,0.0,78,0.00,,,0.00,Wunderground v.1.15,2013-06-10 04:17:00,
2013-06-10 00:20:00,71.5,64.3,30.01,WSW,237,0.0,0.0,78,0.00,,,0.00,Wunderground v.1.15,2013-06-10 04:20:00,
2013-06-10 00:27:00,71.5,64.6,30.01,SW,216,0.0,3.0,79,0.00,,,0.00,Wunderground v.1.15,2013-06-10 04:27:00,
2013-06-10 00:36:00,71.3,64.8,30.01,SW,224,0.0,0.0,80,0.00,,,0.00,Wunderground v.1.15,2013-06-10 04:36:00,
2013-06-10 00:42:00,71.3,65.2,30.01,SW,229,0.0,0.0,81,0.00,,,0.00,Wunderground v.1.15,2013-06-10 04:42:00,
2013-06-10 00:47:00,71.3,65.2,30.01,SW,236,0.0,0.0,81,0.00,,,0.00,Wunderground v.1.15,2013-06-10 04:47:00,
2013-06-10 00:55:00,71.1,65.3,30.01,SSW,212,0.0,0.0,82,0.00,,,0.00,Wunderground v.1.15,2013-06-10 04:55:00,
2013-06-10 01:01:00,71.1,65.3,30.00,SSW,212,0.0,1.0,82,0.00,,,0.00,Wunderground v.1.15,2013-06-10 05:01:00,
2013-06-10 01:07:00,71.1,65.3,30.00,WSW,250,0.0,1.0,82,0.00,,,0.00,Wunderground v.1.15,2013-06-10 05:07:00,
2013-06-10 01:16:00,70.9,65.5,30.00,West,260,0.0,0.0,83,0.00,,,0.00,Wunderground v.1.15,2013-06-10 05:16:00,
2013-06-10 01:22:00,70.9,65.5,30.00,West,260,0.0,0.0,83,0.00,,,0.00,Wunderground v.1.15,2013-06-10 05:22:00,
2013-06-10 01:28:00,70.9,65.5,30.00,West,260,0.0,0.0,83,0.00,,,0.00,Wunderground v.1.15,2013-06-10 05:28:00,
2013-06-10 01:35:00,70.8,65.7,30.00,WSW,258,0.0,0.0,84,0.00,,,0.00,Wunderground v.1.15,2013-06-10 05:35:00,
2013-06-10 01:40:00,70.8,65.7,30.00,West,260,0.0,0.0,84,0.00,,,0.00,Wunderground v.1.15,2013-06-10 05:40:00,
2013-06-10 01:45:00,70.8,65.7,30.01,SSW,209,0.0,0.0,84,0.00,,,0.00,Wunderground v.1.15,2013-06-10 05:45:00,
2013-06-10 01:51:00,70.9,66.2,30.01,NW,306,0.0,0.0,85,0.25,,,0.01,Wunderground v.1.15,2013-06-10 05:51:00,
2013-06-10 01:57:00,70.8,66.4,30.01,West,271,0.0,0.0,86,0.26,,,0.05,Wunderground v.1.15,2013-06-10 05:57:00,
2013-06-10 02:04:00,70.6,66.2,30.00,West,271,0.0,0.0,86,0.22,,,0.07,Wunderground v.1.15,2013-06-10 06:04:00,
2013-06-10 02:10:00,70.4,66.3,30.00,West,271,0.0,0.0,87,0.21,,,0.09,Wunderground v.1.15,2013-06-10 06:10:00,
2013-06-10 02:17:00,70.3,66.2,29.99,West,270,0.0,0.0,87,0.16,,,0.11,Wunderground v.1.15,2013-06-10 06:17:00,
2013-06-10 02:25:00,70.1,66.4,29.99,West,265,0.0,0.0,88,0.23,,,0.14,Wunderground v.1.15,2013-06-10 06:25:00,
2013-06-10 02:30:00,69.9,66.2,29.98,West,271,0.0,0.0,88,0.15,,,0.15,Wunderground v.1.15,2013-06-10 06:30:00,
2013-06-10 02:37:00,69.9,66.2,29.98,West,270,0.0,0.0,88,0.11,,,0.17,Wunderground v.1.15,2013-06-10 06:37:00,
2013-06-10 02:42:00,69.8,66.4,29.98,West,268,0.0,0.0,89,0.10,,,0.17,Wunderground v.1.15,2013-06-10 06:42:00,
2013-06-10 02:47:00,69.8,66.4,29.97,West,263,0.0,0.0,89,0.05,,,0.17,Wunderground v.1.15,2013-06-10 06:47:00,
2013-06-10 02:52:00,69.6,66.2,29.97,West,271,0.0,0.0,89,0.04,,,0.17,Wunderground v.1.15,2013-06-10 06:52:00,
2013-06-10 02:58:00,69.4,66.0,29.97,West,270,0.0,0.0,89,0.00,,,0.17,Wunderground v.1.15,2013-06-10 06:58:00,
2013-06-10 03:07:00,69.3,66.2,29.97,West,270,0.0,0.0,90,0.00,,,0.17,Wunderground v.1.15,2013-06-10 07:07:00,
2013-06-10 03:14:00,69.3,66.2,29.96,West,265,0.0,0.0,90,0.00,,,0.17,Wunderground v.1.15,2013-06-10 07:14:00,
2013-06-10 03:20:00,69.3,66.2,29.96,West,261,0.0,0.0,90,0.00,,,0.17,Wunderground v.1.15,2013-06-10 07:20:00,
2013-06-10 03:27:00,69.1,66.0,29.96,West,265,0.0,0.0,90,0.00,,,0.17,Wunderground v.1.15,2013-06-10 07:27:00,
2013-06-10 03:36:00,69.1,66.0,29.97,West,270,0.0,0.0,90,0.00,,,0.18,Wunderground v.1.15,2013-06-10 07:36:00,
2013-06-10 03:42:00,68.9,65.8,29.97,West,270,0.0,0.0,90,0.00,,,0.18,Wunderground v.1.15,2013-06-10 07:42:00,
2013-06-10 03:47:00,68.9,66.2,29.97,West,270,0.0,0.0,91,0.00,,,0.18,Wunderground v.1.15,2013-06-10 07:47:00,
2013-06-10 04:00:00,68.8,66.1,29.96,West,265,0.0,0.0,91,0.00,,,0.18,Wunderground v.1.15,2013-06-10 08:00:00,
2013-06-10 04:07:00,68.8,66.1,29.96,West,270,0.0,0.0,91,0.00,,,0.18,Wunderground v.1.15,2013-06-10 08:07:00,
2013-06-10 04:16:00,68.6,65.9,29.98,West,270,0.0,0.0,91,0.00,,,0.19,Wunderground v.1.15,2013-06-10 08:16:00,
2013-06-10 04:22:00,68.6,65.9,29.98,West,265,0.0,0.0,91,0.13,,,0.20,Wunderground v.1.15,2013-06-10 08:22:00,
2013-06-10 04:28:00,68.6,65.9,29.98,West,265,0.0,0.0,91,0.06,,,0.20,Wunderground v.1.15,2013-06-10 08:28:00,
2013-06-10 04:35:00,68.4,65.7,29.97,West,270,0.0,0.0,91,0.00,,,0.20,Wunderground v.1.15,2013-06-10 08:35:00,
2013-06-10 04:41:00,68.3,65.6,29.97,West,270,0.0,0.0,91,0.00,,,0.20,Wunderground v.1.15,2013-06-10 08:41:00,
2013-06-10 04:46:00,68.3,65.9,29.96,West,270,0.0,0.0,92,0.00,,,0.20,Wunderground v.1.15,2013-06-10 08:46:00,
2013-06-10 04:52:00,68.3,65.9,29.96,West,268,0.0,0.0,92,0.00,,,0.20,Wunderground v.1.15,2013-06-10 08:52:00,
2013-06-10 04:57:00,68.1,65.7,29.96,West,268,0.0,0.0,92,0.00,,,0.20,Wunderground v.1.15,2013-06-10 08:57:00,
2013-06-10 05:02:00,68.1,65.7,29.95,West,267,0.0,0.0,92,0.00,,,0.20,Wunderground v.1.15,2013-06-10 09:02:00,
2013-06-10 05:07:00,68.1,65.7,29.95,West,270,0.0,0.0,92,0.00,,,0.20,Wunderground v.1.15,2013-06-10 09:07:00,
2013-06-10 05:15:00,67.9,65.5,29.95,West,268,0.0,0.0,92,0.00,,,0.20,Wunderground v.1.15,2013-06-10 09:15:00,
2013-06-10 05:20:00,67.9,65.5,29.95,West,268,0.0,0.0,92,0.00,,,0.20,Wunderground v.1.15,2013-06-10 09:20:00,
2013-06-10 05:26:00,67.9,65.5,29.95,West,270,0.0,0.0,92,0.00,,,0.20,Wunderground v.1.15,2013-06-10 09:26:00,
2013-06-10 05:32:00,67.9,65.5,29.95,SW,236,0.0,1.0,92,0.00,,,0.20,Wunderground v.1.15,2013-06-10 09:32:00,
2013-06-10 05:37:00,67.9,65.5,29.95,SW,233,0.0,1.0,92,0.00,,,0.20,Wunderground v.1.15,2013-06-10 09:37:00,
2013-06-10 05:42:00,67.8,65.4,29.95,WSW,237,0.0,0.0,92,0.00,,,0.20,Wunderground v.1.15,2013-06-10 09:42:00,
2013-06-10 05:48:00,67.8,65.4,29.94,SW,236,0.0,0.0,92,0.00,,,0.20,Wunderground v.1.15,2013-06-10 09:48:00,
2013-06-10 05:56:00,67.6,65.2,29.94,SW,234,0.0,0.0,92,0.00,,,0.20,Wunderground v.1.15,2013-06-10 09:56:00,
2013-06-10 06:02:00,67.6,65.2,29.94,SW,234,0.0,0.0,92,0.00,,,0.20,Wunderground v.1.15,2013-06-10 10:02:00,
2013-06-10 06:08:00,67.6,65.2,29.94,WSW,237,0.0,0.0,92,0.00,,,0.20,Wunderground v.1.15,2013-06-10 10:08:00,
2013-06-10 06:18:00,67.6,65.2,29.95,SW,234,0.0,0.0,92,0.00,,,0.20,Wunderground v.1.15,2013-06-10 10:18:00,
2013-06-10 06:29:00,67.6,65.2,29.94,WSW,237,0.0,0.0,92,0.00,,,0.20,Wunderground v.1.15,2013-06-10 10:29:00,
2013-06-10 06:37:00,67.6,65.2,29.94,WSW,237,0.0,0.0,92,0.00,,,0.20,Wunderground v.1.15,2013-06-10 10:37:00,
2013-06-10 06:44:00,67.8,65.7,29.95,SW,236,0.0,0.0,93,0.00,,,0.20,Wunderground v.1.15,2013-06-10 10:44:00,
2013-06-10 06:50:00,67.8,65.7,29.95,WSW,237,0.0,0.0,93,0.00,,,0.20,Wunderground v.1.15,2013-06-10 10:50:00,
2013-06-10 06:57:00,68.1,66.0,29.95,SW,234,0.0,0.0,93,0.00,,,0.20,Wunderground v.1.15,2013-06-10 10:57:00,
2013-06-10 07:04:00,68.1,66.0,29.95,SW,236,0.0,0.0,93,0.00,,,0.20,Wunderground v.1.15,2013-06-10 11:04:00,
2013-06-10 07:10:00,68.1,66.0,29.95,SW,215,0.0,1.0,93,0.00,,,0.20,Wunderground v.1.15,2013-06-10 11:10:00,
2013-06-10 07:17:00,68.1,66.0,29.95,SW,233,0.0,1.0,93,0.00,,,0.20,Wunderground v.1.15,2013-06-10 11:17:00,
2013-06-10 07:22:00,68.1,66.0,29.95,WSW,246,0.0,0.0,93,0.00,,,0.20,Wunderground v.1.15,2013-06-10 11:22:00,
2013-06-10 07:28:00,68.1,66.0,29.95,SW,229,0.0,0.0,93,0.00,,,0.20,Wunderground v.1.15,2013-06-10 11:28:00,
2013-06-10 07:36:00,68.3,66.2,29.94,SW,224,0.0,0.0,93,0.00,,,0.20,Wunderground v.1.15,2013-06-10 11:36:00,
2013-06-10 07:42:00,68.3,66.2,29.94,WSW,247,0.0,0.0,93,0.00,,,0.20,Wunderground v.1.15,2013-06-10 11:42:00,
2013-06-10 07:47:00,68.3,66.2,29.94,WSW,237,0.0,0.0,93,0.00,,,0.20,Wunderground v.1.15,2013-06-10 11:47:00,
2013-06-10 07:54:00,68.3,66.2,29.94,SW,234,0.0,1.0,93,0.00,,,0.20,Wunderground v.1.15,2013-06-10 11:54:00,
2013-06-10 08:00:00,68.4,66.3,29.94,South,191,0.0,0.0,93,0.00,,,0.20,Wunderground v.1.15,2013-06-10 12:00:00,
2013-06-10 08:07:00,68.4,66.3,29.94,SW,224,0.0,0.0,93,0.00,,,0.20,Wunderground v.1.15,2013-06-10 12:07:00,
2013-06-10 08:17:00,68.6,66.5,29.94,SW,226,0.0,0.0,93,0.00,,,0.20,Wunderground v.1.15,2013-06-10 12:17:00,
2013-06-10 08:22:00,68.8,66.7,29.94,SW,226,0.0,0.0,93,0.00,,,0.20,Wunderground v.1.15,2013-06-10 12:22:00,
2013-06-10 08:27:00,68.8,66.7,29.94,SW,230,0.0,0.0,93,0.00,,,0.20,Wunderground v.1.15,2013-06-10 12:27:00,
2013-06-10 08:36:00,68.8,66.7,29.94,SW,230,0.0,0.0,93,0.00,,,0.20,Wunderground v.1.15,2013-06-10 12:36:00,
2013-06-10 08:41:00,68.9,66.8,29.94,SW,219,0.0,2.0,93,0.00,,,0.20,Wunderground v.1.15,2013-06-10 12:41:00,
2013-06-10 08:47:00,68.8,66.7,29.93,SW,220,0.0,2.0,93,0.00,,,0.20,Wunderground v.1.15,2013-06-10 12:47:00,
2013-06-10 08:52:00,68.8,66.7,29.93,SW,217,0.0,0.0,93,0.00,,,0.20,Wunderground v.1.15,2013-06-10 12:52:00,
2013-06-10 08:58:00,68.6,66.5,29.93,SW,220,0.0,0.0,93,0.00,,,0.20,Wunderground v.1.15,2013-06-10 12:58:00,
2013-06-10 09:07:00,68.4,66.3,29.93,WSW,240,0.0,0.0,93,0.00,,,0.20,Wunderground v.1.15,2013-06-10 13:07:00,
2013-06-10 09:15:00,68.6,66.5,29.92,SW,233,0.0,0.0,93,0.00,,,0.20,Wunderground v.1.15,2013-06-10 13:15:00,
2013-06-10 09:21:00,68.8,66.7,29.92,WSW,239,0.0,0.0,93,0.00,,,0.20,Wunderground v.1.15,2013-06-10 13:21:00,
2013-06-10 09:28:00,68.9,66.8,29.92,South,185,0.0,3.0,93,0.00,,,0.20,Wunderground v.1.15,2013-06-10 13:28:00,
2013-06-10 09:35:00,68.9,66.8,29.92,SW,217,0.0,0.0,93,0.00,,,0.20,Wunderground v.1.15,2013-06-10 13:35:00,
2013-06-10 09:41:00,68.9,66.8,29.92,SW,227,0.0,1.0,93,0.00,,,0.20,Wunderground v.1.15,2013-06-10 13:41:00,
2013-06-10 09:46:00,69.1,67.0,29.92,SW,223,0.0,1.0,93,0.00,,,0.20,Wunderground v.1.15,2013-06-10 13:46:00,
2013-06-10 09:51:00,69.3,67.2,29.92,WNW,295,0.0,0.0,93,0.00,,,0.20,Wunderground v.1.15,2013-06-10 13:51:00,
2013-06-10 09:57:00,69.3,67.2,29.92,SW,215,0.0,0.0,93,0.00,,,0.20,Wunderground v.1.15,2013-06-10 13:57:00,
2013-06-10 10:06:00,69.4,67.3,29.91,SW,220,0.0,0.0,93,0.00,,,0.20,Wunderground v.1.15,2013-06-10 14:06:00,
2013-06-10 10:12:00,69.6,67.5,29.91,SW,226,0.0,1.0,93,0.00,,,0.20,Wunderground v.1.15,2013-06-10 14:12:00,
2013-06-10 10:17:00,69.8,67.7,29.90,SW,229,0.0,1.0,93,0.00,,,0.20,Wunderground v.1.15,2013-06-10 14:17:00,
2013-06-10 10:25:00,70.1,68.0,29.90,SSW,196,0.0,0.0,93,0.00,,,0.20,Wunderground v.1.15,2013-06-10 14:25:00,
2013-06-10 10:32:00,69.8,67.7,29.90,SW,220,0.0,0.0,93,0.00,,,0.20,Wunderground v.1.15,2013-06-10 14:32:00,
2013-06-10 10:37:00,69.9,67.8,29.90,SSW,212,0.0,0.0,93,0.00,,,0.20,Wunderground v.1.15,2013-06-10 14:37:00,
2013-06-10 10:45:00,70.1,68.0,29.89,SW,227,0.0,0.0,93,0.00,,,0.20,Wunderground v.1.15,2013-06-10 14:45:00,
2013-06-10 10:50:00,70.3,68.2,29.89,SW,226,0.0,0.0,93,0.00,,,0.20,Wunderground v.1.15,2013-06-10 14:50:00,
2013-06-10 10:56:00,70.3,68.2,29.89,SSW,206,0.0,3.0,93,0.00,,,0.20,Wunderground v.1.15,2013-06-10 14:56:00,
2013-06-10 11:02:00,70.4,68.3,29.89,SW,226,0.0,1.0,93,0.00,,,0.20,Wunderground v.1.15,2013-06-10 15:02:00,
2013-06-10 11:10:00,70.6,68.5,29.89,WSW,254,0.0,0.0,93,0.00,,,0.20,Wunderground v.1.15,2013-06-10 15:10:00,
2013-06-10 11:17:00,70.8,68.7,29.89,WSW,240,0.0,0.0,93,0.00,,,0.20,Wunderground v.1.15,2013-06-10 15:17:00,
2013-06-10 11:24:00,70.9,68.5,29.89,SW,226,0.0,1.0,92,0.00,,,0.20,Wunderground v.1.15,2013-06-10 15:24:00,
2013-06-10 11:30:00,70.9,68.5,29.88,SW,227,0.0,0.0,92,0.00,,,0.20,Wunderground v.1.15,2013-06-10 15:30:00,
2013-06-10 11:37:00,71.3,68.9,29.88,SW,232,0.0,0.0,92,0.00,,,0.20,Wunderground v.1.15,2013-06-10 15:37:00,
2013-06-10 11:44:00,71.3,68.9,29.87,SW,216,0.0,0.0,92,0.00,,,0.20,Wunderground v.1.15,2013-06-10 15:44:00,
2013-06-10 11:50:00,71.5,69.1,29.87,SW,216,0.0,0.0,92,0.00,,,0.20,Wunderground v.1.15,2013-06-10 15:50:00,
2013-06-10 11:57:00,71.3,68.9,29.87,West,280,0.0,0.0,92,0.00,,,0.20,Wunderground v.1.15,2013-06-10 15:57:00,
2013-06-10 12:08:00,71.5,69.1,29.87,SSW,200,0.0,0.0,92,0.00,,,0.20,Wunderground v.1.15,2013-06-10 16:08:00,
2013-06-10 12:17:00,71.3,68.9,29.87,South,172,0.0,1.0,92,0.00,,,0.20,Wunderground v.1.15,2013-06-10 16:17:00,
2013-06-10 12:28:00,71.3,68.5,29.87,South,179,0.0,0.0,91,0.00,,,0.20,Wunderground v.1.15,2013-06-10 16:28:00,
2013-06-10 12:35:00,71.5,69.1,29.86,South,171,0.0,0.0,92,0.00,,,0.20,Wunderground v.1.15,2013-06-10 16:35:00,
2013-06-10 12:40:00,71.5,69.1,29.86,SW,233,0.0,0.0,92,0.00,,,0.20,Wunderground v.1.15,2013-06-10 16:40:00,
2013-06-10 12:48:00,71.3,68.9,29.84,WSW,237,0.0,0.0,92,0.00,,,0.20,Wunderground v.1.15,2013-06-10 16:48:00,
2013-06-10 12:57:00,71.5,69.1,29.84,SW,227,0.0,0.0,92,0.00,,,0.20,Wunderground v.1.15,2013-06-10 16:57:00,
2013-06-10 13:02:00,71.6,69.2,29.84,SW,229,0.0,0.0,92,0.00,,,0.20,Wunderground v.1.15,2013-06-10 17:02:00,
2013-06-10 13:07:00,71.8,69.3,29.84,West,265,0.0,0.0,92,0.00,,,0.20,Wunderground v.1.15,2013-06-10 17:07:00,
2013-06-10 13:18:00,72.3,69.8,29.82,NW,305,0.0,2.0,92,0.00,,,0.20,Wunderground v.1.15,2013-06-10 17:18:00,
2013-06-10 13:27:00,72.7,70.2,29.82,West,263,0.0,0.0,92,0.00,,,0.20,Wunderground v.1.15,2013-06-10 17:27:00,
2013-06-10 13:35:00,72.8,70.3,29.82,WNW,301,0.0,2.0,92,0.00,,,0.20,Wunderground v.1.15,2013-06-10 17:35:00,
2013-06-10 13:42:00,73.2,70.7,29.82,SW,229,0.0,0.0,92,0.00,,,0.20,Wunderground v.1.15,2013-06-10 17:42:00,
2013-06-10 13:48:00,73.3,70.8,29.81,SW,234,0.0,0.0,92,0.00,,,0.20,Wunderground v.1.15,2013-06-10 17:48:00,
2013-06-10 13:55:00,73.7,71.2,29.81,West,281,0.0,1.0,92,0.00,,,0.20,Wunderground v.1.15,2013-06-10 17:55:00,
2013-06-10 14:01:00,74.0,71.5,29.80,SW,232,0.0,0.0,92,0.00,,,0.20,Wunderground v.1.15,2013-06-10 18:01:00,
2013-06-10 14:08:00,74.0,71.2,29.80,West,270,0.0,0.0,91,0.00,,,0.20,Wunderground v.1.15,2013-06-10 18:08:00,
2013-06-10 14:16:00,74.2,71.4,29.79,NW,305,0.0,1.0,91,0.00,,,0.20,Wunderground v.1.15,2013-06-10 18:16:00,
2013-06-10 14:22:00,74.7,71.2,29.79,SW,222,0.0,1.0,89,0.00,,,0.20,Wunderground v.1.15,2013-06-10 18:22:00,
2013-06-10 14:27:00,75.6,71.8,29.79,WNW,284,0.0,1.0,88,0.00,,,0.20,Wunderground v.1.15,2013-06-10 18:27:00,
2013-06-10 14:36:00,76.8,71.9,29.78,WSW,247,0.0,2.0,85,0.00,,,0.20,Wunderground v.1.15,2013-06-10 18:36:00,
2013-06-10 14:41:00,77.4,71.1,29.78,SSW,198,0.0,1.0,81,0.00,,,0.20,Wunderground v.1.15,2013-06-10 18:41:00,
2013-06-10 14:47:00,78.5,71.4,29.78,SW,234,1.0,1.0,79,0.00,,,0.20,Wunderground v.1.15,2013-06-10 18:47:00,
2013-06-10 14:52:00,78.6,70.0,29.78,SSW,199,1.0,1.0,75,0.00,,,0.20,Wunderground v.1.15,2013-06-10 18:52:00,
2013-06-10 14:57:00,78.8,71.0,29.78,West,270,1.0,1.0,77,0.00,,,0.20,Wunderground v.1.15,2013-06-10 18:57:00,
2013-06-10 15:02:00,79.0,70.4,29.77,WNW,298,1.0,1.0,75,0.00,,,0.20,Wunderground v.1.15,2013-06-10 19:02:00,
2013-06-10 15:08:00,79.4,71.2,29.77,WSW,253,1.0,1.0,76,0.00,,,0.20,Wunderground v.1.15,2013-06-10 19:08:00,
2013-06-10 15:16:00,79.4,71.2,29.76,SW,223,0.0,0.0,76,0.00,,,0.20,Wunderground v.1.15,2013-06-10 19:16:00,
2013-06-10 15:21:00,79.6,71.0,29.76,West,277,0.0,0.0,75,0.00,,,0.20,Wunderground v.1.15,2013-06-10 19:21:00,
2013-06-10 15:26:00,79.8,71.6,29.76,NW,311,0.0,0.0,76,0.00,,,0.20,Wunderground v.1.15,2013-06-10 19:26:00,
2013-06-10 15:32:00,80.1,71.1,29.75,WNW,292,1.0,2.0,74,0.00,,,0.20,Wunderground v.1.15,2013-06-10 19:32:00,
2013-06-10 15:38:00,80.3,71.6,29.75,WNW,289,0.0,2.0,75,0.00,,,0.20,Wunderground v.1.15,2013-06-10 19:38:00,
2013-06-10 15:50:00,81.1,72.0,29.73,North,0,0.0,2.0,74,0.00,,,0.20,Wunderground v.1.15,2013-06-10 19:50:00,
2013-06-10 15:58:00,80.9,70.6,29.73,NNW,337,0.0,5.0,71,0.00,,,0.20,Wunderground v.1.15,2013-06-10 19:58:00,
2013-06-10 16:05:00,79.9,69.7,29.73,WNW,289,0.0,1.0,71,0.00,,,0.20,Wunderground v.1.15,2013-06-10 20:05:00,
2013-06-10 16:10:00,79.6,69.8,29.73,NNW,333,1.0,2.0,72,0.00,,,0.20,Wunderground v.1.15,2013-06-10 20:10:00,
2013-06-10 16:18:00,79.6,70.2,29.72,South,191,1.0,6.0,73,0.00,,,0.20,Wunderground v.1.15,2013-06-10 20:18:00,
2013-06-10 16:25:00,79.8,69.6,29.72,West,268,1.0,2.0,71,0.00,,,0.20,Wunderground v.1.15,2013-06-10 20:25:00,
2013-06-10 16:31:00,79.6,69.4,29.72,WNW,295,1.0,3.0,71,0.00,,,0.20,Wunderground v.1.15,2013-06-10 20:31:00,
2013-06-10 16:37:00,79.6,70.2,29.72,WNW,301,1.0,6.0,73,0.00,,,0.20,Wunderground v.1.15,2013-06-10 20:37:00,
2013-06-10 16:47:00,81.1,70.0,29.71,NNW,339,1.0,1.0,69,0.00,,,0.20,Wunderground v.1.15,2013-06-10 20:47:00,
2013-06-10 16:52:00,81.2,70.5,29.71,South,186,1.0,1.0,70,0.00,,,0.20,Wunderground v.1.15,2013-06-10 20:52:00,
2013-06-10 16:58:00,81.1,70.4,29.71,West,263,1.0,1.0,70,0.00,,,0.20,Wunderground v.1.15,2013-06-10 20:58:00,
2013-06-10 17:08:00,80.5,70.2,29.71,WNW,302,0.0,1.0,71,0.00,,,0.20,Wunderground v.1.15,2013-06-10 21:08:00,
2013-06-10 17:17:00,79.6,69.8,29.71,NW,306,0.0,0.0,72,0.00,,,0.20,Wunderground v.1.15,2013-06-10 21:17:00,
2013-06-10 17:22:00,79.2,69.8,29.71,WNW,298,0.0,0.0,73,0.00,,,0.20,Wunderground v.1.15,2013-06-10 21:22:00,
2013-06-10 17:28:00,78.8,70.6,29.71,South,176,0.0,0.0,76,0.00,,,0.20,Wunderground v.1.15,2013-06-10 21:28:00,
2013-06-10 17:36:00,77.7,70.3,29.70,WSW,237,0.0,0.0,78,0.00,,,0.20,Wunderground v.1.15,2013-06-10 21:36:00,
2013-06-10 17:46:00,74.4,67.8,29.71,WNW,285,2.0,17.0,80,0.00,,,0.20,Wunderground v.1.15,2013-06-10 21:46:00,
2013-06-10 17:51:00,72.8,67.0,29.71,NE,47,1.0,2.0,82,0.00,,,0.20,Wunderground v.1.15,2013-06-10 21:51:00,
2013-06-10 17:57:00,71.5,66.8,29.71,WSW,251,1.0,2.0,85,0.00,,,0.20,Wunderground v.1.15,2013-06-10 21:57:00,
2013-06-10 18:08:00,70.3,66.2,29.73,North,0,2.0,5.0,87,0.00,,,0.20,Wunderground v.1.15,2013-06-10 22:08:00,
2013-06-10 18:16:00,70.1,66.7,29.73,North,0,2.0,4.0,89,0.00,,,0.20,Wunderground v.1.15,2013-06-10 22:16:00,
2013-06-10 18:22:00,69.9,66.5,29.73,North,356,2.0,2.0,89,0.00,,,0.20,Wunderground v.1.15,2013-06-10 22:22:00,
2013-06-10 18:29:00,69.9,66.8,29.73,North,356,0.0,2.0,90,0.00,,,0.20,Wunderground v.1.15,2013-06-10 22:29:00,
2013-06-10 18:36:00,69.9,66.8,29.73,North,356,0.0,1.0,90,0.00,,,0.20,Wunderground v.1.15,2013-06-10 22:36:00,
2013-06-10 18:41:00,69.8,66.7,29.73,North,356,0.0,0.0,90,0.00,,,0.20,Wunderground v.1.15,2013-06-10 22:41:00,
2013-06-10 18:48:00,69.9,66.8,29.73,North,11,0.0,0.0,90,0.00,,,0.20,Wunderground v.1.15,2013-06-10 22:48:00,
2013-06-10 18:56:00,70.1,67.3,29.73,West,275,0.0,0.0,91,0.00,,,0.20,Wunderground v.1.15,2013-06-10 22:56:00,
2013-06-10 19:02:00,70.1,67.3,29.72,NNW,347,0.0,0.0,91,0.00,,,0.20,Wunderground v.1.15,2013-06-10 23:02:00,
2013-06-10 19:07:00,70.3,67.5,29.72,North,359,0.0,1.0,91,0.00,,,0.20,Wunderground v.1.15,2013-06-10 23:07:00,
2013-06-10 19:16:00,70.1,67.3,29.72,SW,215,1.0,2.0,91,0.00,,,0.20,Wunderground v.1.15,2013-06-10 23:16:00,
2013-06-10 19:21:00,70.1,67.3,29.72,SW,219,1.0,3.0,91,0.00,,,0.20,Wunderground v.1.15,2013-06-10 23:21:00,
2013-06-10 19:27:00,70.1,67.3,29.72,SW,222,0.0,3.0,91,0.00,,,0.20,Wunderground v.1.15,2013-06-10 23:27:00,
2013-06-10 19:32:00,70.1,67.3,29.71,West,281,0.0,0.0,91,0.00,,,0.20,Wunderground v.1.15,2013-06-10 23:32:00,
2013-06-10 19:37:00,70.1,67.3,29.71,WNW,301,0.0,0.0,91,0.00,,,0.20,Wunderground v.1.15,2013-06-10 23:37:00,
2013-06-10 19:46:00,69.9,67.2,29.71,NW,309,0.0,0.0,91,0.00,,,0.20,Wunderground v.1.15,2013-06-10 23:46:00,
2013-06-10 19:51:00,69.9,67.5,29.71,NNE,13,0.0,2.0,92,0.00,,,0.20,Wunderground v.1.15,2013-06-10 23:51:00,
2013-06-10 19:57:00,69.8,67.4,29.71,NNE,14,0.0,2.0,92,0.00,,,0.20,Wunderground v.1.15,2013-06-10 23:57:00,
2013-06-10 20:02:00,69.6,67.2,29.71,SSW,196,1.0,3.0,92,0.00,,,0.20,Wunderground v.1.15,2013-06-11 00:02:00,
2013-06-10 20:08:00,69.6,67.2,29.71,NNE,25,1.0,3.0,92,0.00,,,0.20,Wunderground v.1.15,2013-06-11 00:08:00,
2013-06-10 20:17:00,69.6,67.2,29.72,NNE,24,0.0,1.0,92,0.00,,,0.20,Wunderground v.1.15,2013-06-11 00:17:00,
2013-06-10 20:22:00,69.6,67.2,29.72,NNE,23,0.0,2.0,92,0.00,,,0.20,Wunderground v.1.15,2013-06-11 00:22:00,
2013-06-10 20:27:00,69.4,67.0,29.72,NE,34,0.0,2.0,92,0.00,,,0.20,Wunderground v.1.15,2013-06-11 00:27:00,
2013-06-10 20:37:00,69.4,67.0,29.72,NE,35,0.0,0.0,92,0.00,,,0.20,Wunderground v.1.15,2013-06-11 00:37:00,
2013-06-10 20:42:00,69.4,67.0,29.72,NNE,28,0.0,0.0,92,0.00,,,0.20,Wunderground v.1.15,2013-06-11 00:42:00,
2013-06-10 20:47:00,69.3,66.9,29.72,NNE,30,0.0,0.0,92,0.00,,,0.20,Wunderground v.1.15,2013-06-11 00:47:00,
2013-06-10 20:52:00,69.3,66.9,29.72,NNE,27,0.0,0.0,92,0.00,,,0.20,Wunderground v.1.15,2013-06-11 00:52:00,
2013-06-10 20:57:00,69.1,66.7,29.72,NNE,31,0.0,0.0,92,0.00,,,0.20,Wunderground v.1.15,2013-06-11 00:57:00,
2013-06-10 21:07:00,69.1,66.7,29.73,NNE,17,0.0,0.0,92,0.00,,,0.20,Wunderground v.1.15,2013-06-11 01:07:00,
2013-06-10 21:12:00,68.9,66.5,29.73,NNE,18,0.0,0.0,92,0.00,,,0.20,Wunderground v.1.15,2013-06-11 01:12:00,
2013-06-10 21:17:00,68.9,66.5,29.73,NNE,24,0.0,0.0,92,0.00,,,0.20,Wunderground v.1.15,2013-06-11 01:17:00,
2013-06-10 21:27:00,68.8,66.4,29.73,NNE,20,0.0,0.0,92,0.00,,,0.20,Wunderground v.1.15,2013-06-11 01:27:00,
2013-06-10 21:32:00,68.8,66.4,29.74,NNE,23,0.0,0.0,92,0.00,,,0.20,Wunderground v.1.15,2013-06-11 01:32:00,
2013-06-10 21:38:00,68.6,66.2,29.74,NNE,18,0.0,0.0,92,0.00,,,0.20,Wunderground v.1.15,2013-06-11 01:38:00,
2013-06-10 21:47:00,68.4,66.0,29.74,NNE,20,0.0,0.0,92,0.00,,,0.20,Wunderground v.1.15,2013-06-11 01:47:00,
2013-06-10 21:52:00,68.4,66.0,29.74,NNE,21,0.0,0.0,92,0.00,,,0.20,Wunderground v.1.15,2013-06-11 01:52:00,
2013-06-10 21:58:00,68.4,66.0,29.74,NNE,21,0.0,0.0,92,0.00,,,0.21,Wunderground v.1.15,2013-06-11 01:58:00,
2013-06-10 22:06:00,68.3,65.9,29.74,SSW,206,0.0,0.0,92,0.00,,,0.21,Wunderground v.1.15,2013-06-11 02:06:00,
2013-06-10 22:12:00,68.3,65.9,29.74,NE,37,0.0,0.0,92,0.00,,,0.21,Wunderground v.1.15,2013-06-11 02:12:00,
2013-06-10 22:18:00,68.3,65.9,29.74,NE,40,0.0,0.0,92,0.00,,,0.21,Wunderground v.1.15,2013-06-11 02:18:00,
2013-06-10 22:26:00,68.1,65.7,29.74,NW,308,0.0,0.0,92,0.00,,,0.21,Wunderground v.1.15,2013-06-11 02:26:00,
2013-06-10 22:31:00,67.9,65.5,29.74,WSW,254,0.0,0.0,92,0.00,,,0.21,Wunderground v.1.15,2013-06-11 02:31:00,
2013-06-10 22:37:00,67.9,65.5,29.74,WSW,256,0.0,0.0,92,0.00,,,0.21,Wunderground v.1.15,2013-06-11 02:37:00,
2013-06-10 22:42:00,67.9,65.5,29.74,NNW,336,0.0,0.0,92,0.00,,,0.22,Wunderground v.1.15,2013-06-11 02:42:00,
2013-06-10 22:47:00,67.9,65.5,29.75,NNW,330,0.0,0.0,92,0.00,,,0.22,Wunderground v.1.15,2013-06-11 02:47:00,
2013-06-10 22:52:00,67.9,65.8,29.75,NNW,328,0.0,0.0,93,0.00,,,0.22,Wunderground v.1.15,2013-06-11 02:52:00,
2013-06-10 22:58:00,67.8,65.7,29.75,NNW,336,0.0,0.0,93,0.00,,,0.22,Wunderground v.1.15,2013-06-11 02:58:00,
2013-06-10 23:06:00,67.8,65.7,29.75,NNW,336,0.0,0.0,93,0.00,,,0.22,Wunderground v.1.15,2013-06-11 03:06:00,
2013-06-10 23:12:00,67.8,65.7,29.75,NNW,332,0.0,0.0,93,0.00,,,0.22,Wunderground v.1.15,2013-06-11 03:12:00,
2013-06-10 23:18:00,67.6,65.5,29.75,NNW,336,0.0,0.0,93,0.00,,,0.22,Wunderground v.1.15,2013-06-11 03:18:00,
2013-06-10 23:26:00,67.4,65.3,29.75,NNW,332,0.0,0.0,93,0.00,,,0.22,Wunderground v.1.15,2013-06-11 03:26:00,
2013-06-10 23:31:00,67.3,65.2,29.75,NNW,329,0.0,0.0,93,0.00,,,0.22,Wunderground v.1.15,2013-06-11 03:31:00,
2013-06-10 23:37:00,67.1,65.0,29.75,NNW,332,0.0,0.0,93,0.00,,,0.22,Wunderground v.1.15,2013-06-11 03:37:00,
2013-06-10 23:42:00,67.1,65.0,29.75,NNW,333,0.0,0.0,93,0.00,,,0.22,Wunderground v.1.15,2013-06-11 03:42:00,
2013-06-10 23:48:00,66.9,64.5,29.75,NNW,332,0.0,0.0,92,0.00,,,0.22,Wunderground v.1.15,2013-06-11 03:48:00,
2013-06-10 23:56:00,66.8,64.7,29.75,NNW,333,0.0,0.0,93,0.00,,,0.22,Wunderground v.1.15,2013-06-11 03:56:00,